Time,TemperatureF,DewpointF,PressureIn,WindDirection,WindDirectionDegrees,WindSpeedMPH,WindSpeedGustMPH,Humidity,HourlyPrecipIn,Conditions,Clouds,dailyrainin,SoftwareType,DateUTC
2013-09-03 00:00:00,63.3,54.9,30.00,NE,45,0.0,2.0,74,0.00,,---,0.00,VWS V13.01,2013-09-03 06:00:00,
2013-09-03 00:30:00,64.1,54.9,30.00,SSE,158,0.0,3.0,72,0.00,,---,0.00,VWS V13.01,2013-09-03 06:30:00,
2013-09-03 01:00:00,64.5,55.7,30.00,South,180,0.0,2.0,73,0.00,,---,0.00,VWS V13.01,2013-09-03 07:00:00,
2013-09-03 01:30:00,64.1,54.5,30.00,ESE,112,1.0,4.0,71,0.00,,---,0.00,VWS V13.01,2013-09-03 07:30:00,
2013-09-03 02:00:00,65.3,54.1,30.00,SW,225,1.0,7.0,67,0.00,,---,0.00,VWS V13.01,2013-09-03 08:00:00,
2013-09-03 02:30:00,66.5,55.2,30.01,SSW,202,0.0,5.0,67,0.00,,---,0.00,VWS V13.01,2013-09-03 08:30:00,
2013-09-03 03:00:00,66.1,54.4,30.01,WSW,248,1.0,6.0,66,0.00,,---,0.00,VWS V13.01,2013-09-03 09:00:00,
2013-09-03 03:30:00,66.4,54.3,30.01,WNW,292,0.0,3.0,65,0.00,,---,0.00,VWS V13.01,2013-09-03 09:30:00,
2013-09-03 04:00:00,66.3,54.2,30.01,WNW,292,0.0,4.0,65,0.00,,---,0.00,VWS V13.01,2013-09-03 10:00:00,
2013-09-03 04:30:00,65.8,55.0,30.01,North,0,0.0,7.0,68,0.00,,---,0.00,VWS V13.01,2013-09-03 10:30:00,
2013-09-03 05:00:00,64.6,54.2,30.03,North,0,0.0,3.0,69,0.00,,---,0.00,VWS V13.01,2013-09-03 11:00:00,
2013-09-03 05:30:00,64.0,52.4,30.02,North,0,0.0,3.0,66,0.00,,---,0.00,VWS V13.01,2013-09-03 11:30:00,
2013-09-03 06:00:00,64.0,51.6,30.03,North,0,1.0,7.0,64,0.00,,---,0.00,VWS V13.01,2013-09-03 12:00:00,
2013-09-03 06:30:00,64.3,52.7,30.04,North,0,0.0,3.0,66,0.00,,---,0.00,VWS V13.01,2013-09-03 12:30:00,
2013-09-03 07:00:00,64.8,51.9,30.04,North,0,2.0,7.0,63,0.00,,---,0.00,VWS V13.01,2013-09-03 13:00:00,
2013-09-03 07:30:00,64.7,53.1,30.04,North,0,0.0,3.0,66,0.00,,---,0.00,VWS V13.01,2013-09-03 13:30:00,
2013-09-03 08:00:00,65.3,52.4,30.05,North,0,0.0,3.0,63,0.00,,---,0.00,VWS V13.01,2013-09-03 14:00:00,
2013-09-03 08:30:00,69.9,53.0,30.06,North,0,0.0,1.0,55,0.00,,---,0.00,VWS V13.01,2013-09-03 14:30:00,
2013-09-03 09:00:00,74.6,51.9,30.05,North,0,1.0,10.0,45,0.00,,---,0.00,VWS V13.01,2013-09-03 15:00:00,
2013-09-03 09:30:00,78.8,51.8,30.05,NNW,338,4.0,11.0,39,0.00,,---,0.00,VWS V13.01,2013-09-03 15:30:00,
2013-09-03 10:00:00,79.7,51.2,30.06,WNW,292,6.0,18.0,37,0.00,,---,0.00,VWS V13.01,2013-09-03 16:00:00,
2013-09-03 10:11:00,79.7,51.2,30.06,WNW,292,6.0,18.0,37,0.00,,---,0.00,VWS V13.01,2013-09-03 16:11:00,
2013-09-03 10:16:00,81.8,49.9,30.05,NW,315,9.0,13.0,33,0.00,,---,0.00,VWS V13.01,2013-09-03 16:16:00,
2013-09-03 10:21:00,82.7,50.7,30.06,NW,304,8.0,13.0,33,0.00,,---,0.00,VWS V13.01,2013-09-03 16:21:00,
2013-09-03 10:26:00,83.4,51.3,30.06,NW,308,14.0,16.0,33,0.00,,---,0.00,VWS V13.01,2013-09-03 16:26:00,
2013-09-03 10:30:00,83.8,50.8,30.06,NW,304,9.0,17.0,32,0.00,,---,0.00,VWS V13.01,2013-09-03 16:30:00,
2013-09-03 10:31:00,83.9,50.9,30.06,WNW,294,8.0,13.0,32,0.00,,---,0.00,VWS V13.01,2013-09-03 16:31:00,
2013-09-03 10:36:00,83.8,50.0,30.06,WNW,297,3.0,13.0,31,0.00,,---,0.00,VWS V13.01,2013-09-03 16:36:00,
2013-09-03 10:41:00,83.6,49.8,30.06,WNW,284,5.0,13.0,31,0.00,,---,0.00,VWS V13.01,2013-09-03 16:41:00,
2013-09-03 10:46:00,83.7,49.0,30.06,NW,307,5.0,13.0,30,0.00,,---,0.00,VWS V13.01,2013-09-03 16:46:00,
2013-09-03 10:51:00,83.9,49.2,30.06,North,358,3.0,13.0,30,0.00,,---,0.00,VWS V13.01,2013-09-03 16:51:00,
2013-09-03 10:56:00,84.2,52.0,30.06,NNW,337,4.0,13.0,33,0.00,,---,0.00,VWS V13.01,2013-09-03 16:56:00,
2013-09-03 11:00:00,84.5,49.7,30.06,North,358,0.0,13.0,30,0.00,,---,0.00,VWS V13.01,2013-09-03 17:00:00,
2013-09-03 11:01:00,84.6,50.7,30.06,NW,322,6.0,6.0,31,0.00,,---,0.00,VWS V13.01,2013-09-03 17:01:00,
2013-09-03 11:06:00,85.2,50.3,30.06,NNW,330,2.0,7.0,30,0.00,,---,0.00,VWS V13.01,2013-09-03 17:06:00,
2013-09-03 11:12:00,85.8,49.9,30.06,NW,321,4.0,7.0,29,0.00,,---,0.00,VWS V13.01,2013-09-03 17:12:00,
2013-09-03 11:17:00,86.3,51.2,30.06,NNW,344,6.0,7.0,30,0.00,,---,0.00,VWS V13.01,2013-09-03 17:17:00,
2013-09-03 11:22:00,86.4,49.5,30.06,North,358,4.0,8.0,28,0.00,,---,0.00,VWS V13.01,2013-09-03 17:22:00,
2013-09-03 11:27:00,86.2,50.2,30.06,NNW,333,3.0,9.0,29,0.00,,---,0.00,VWS V13.01,2013-09-03 17:27:00,
2013-09-03 11:30:00,86.3,51.2,30.06,North,1,4.0,9.0,30,0.00,,---,0.00,VWS V13.01,2013-09-03 17:30:00,
2013-09-03 11:32:00,86.1,49.2,30.06,North,0,2.0,4.0,28,0.00,,---,0.00,VWS V13.01,2013-09-03 17:32:00,
2013-09-03 11:37:00,85.4,51.4,30.06,North,0,0.0,4.0,31,0.00,,---,0.00,VWS V13.01,2013-09-03 17:37:00,
2013-09-03 11:42:00,84.6,49.8,30.06,North,0,1.0,4.0,30,0.00,,---,0.00,VWS V13.01,2013-09-03 17:42:00,
2013-09-03 11:47:00,84.8,50.0,30.06,NE,34,3.0,4.0,30,0.00,,---,0.00,VWS V13.01,2013-09-03 17:47:00,
2013-09-03 11:52:00,84.4,49.6,30.06,North,6,3.0,8.0,30,0.00,,---,0.00,VWS V13.01,2013-09-03 17:52:00,
2013-09-03 11:57:00,84.4,51.3,30.05,North,0,3.0,8.0,32,0.00,,---,0.00,VWS V13.01,2013-09-03 17:57:00,
2013-09-03 12:00:00,84.2,51.2,30.06,North,1,3.0,8.0,32,0.00,,---,0.00,VWS V13.01,2013-09-03 18:00:00,
2013-09-03 12:02:00,83.5,50.6,30.06,North,5,1.0,5.0,32,0.00,,---,0.00,VWS V13.01,2013-09-03 18:02:00,
2013-09-03 12:08:00,82.5,50.5,30.06,North,359,5.0,6.0,33,0.00,,---,0.00,VWS V13.01,2013-09-03 18:08:00,
2013-09-03 12:13:00,82.4,49.6,30.05,North,10,5.0,7.0,32,0.00,,---,0.00,VWS V13.01,2013-09-03 18:13:00,
2013-09-03 12:18:00,82.5,48.0,30.06,North,0,4.0,7.0,30,0.00,,---,0.00,VWS V13.01,2013-09-03 18:18:00,
2013-09-03 12:23:00,82.6,50.6,30.06,North,0,5.0,7.0,33,0.00,,---,0.00,VWS V13.01,2013-09-03 18:23:00,
2013-09-03 12:28:00,83.0,48.4,30.05,North,1,4.0,9.0,30,0.00,,---,0.00,VWS V13.01,2013-09-03 18:28:00,
2013-09-03 12:30:00,83.1,47.6,30.06,North,6,0.0,9.0,29,0.00,,---,0.00,VWS V13.01,2013-09-03 18:30:00,
2013-09-03 12:33:00,82.9,50.9,30.05,NNE,28,1.0,4.0,33,0.00,,---,0.00,VWS V13.01,2013-09-03 18:33:00,
2013-09-03 12:38:00,82.9,49.2,30.06,North,7,0.0,6.0,31,0.00,,---,0.00,VWS V13.01,2013-09-03 18:38:00,
2013-09-03 12:43:00,83.0,49.3,30.05,North,359,7.0,8.0,31,0.00,,---,0.00,VWS V13.01,2013-09-03 18:43:00,
2013-09-03 12:48:00,83.5,47.9,30.05,North,0,3.0,8.0,29,0.00,,---,0.00,VWS V13.01,2013-09-03 18:48:00,
2013-09-03 12:53:00,83.5,47.0,30.05,North,0,6.0,10.0,28,0.00,,---,0.00,VWS V13.01,2013-09-03 18:53:00,
2013-09-03 12:58:00,83.6,48.0,30.05,North,0,4.0,10.0,29,0.00,,---,0.00,VWS V13.01,2013-09-03 18:58:00,
2013-09-03 13:00:00,83.6,48.9,30.05,North,3,0.0,10.0,30,0.00,,---,0.00,VWS V13.01,2013-09-03 19:00:00,
2013-09-03 13:04:00,83.7,48.1,30.05,North,1,0.0,2.0,29,0.00,,---,0.00,VWS V13.01,2013-09-03 19:04:00,
2013-09-03 13:09:00,83.8,50.8,30.05,North,7,2.0,5.0,32,0.00,,---,0.00,VWS V13.01,2013-09-03 19:09:00,
2013-09-03 13:14:00,83.6,50.7,30.04,North,0,0.0,5.0,32,0.00,,---,0.00,VWS V13.01,2013-09-03 19:14:00,
2013-09-03 13:19:00,84.1,46.5,30.04,North,0,3.0,10.0,27,0.00,,---,0.00,VWS V13.01,2013-09-03 19:19:00,
2013-09-03 13:24:00,85.0,51.0,30.05,North,0,1.0,10.0,31,0.00,,---,0.00,VWS V13.01,2013-09-03 19:24:00,
2013-09-03 13:29:00,85.1,47.4,30.04,North,355,1.0,10.0,27,0.00,,---,0.00,VWS V13.01,2013-09-03 19:29:00,
2013-09-03 13:30:00,85.0,48.3,30.04,North,355,0.0,10.0,28,0.00,,---,0.00,VWS V13.01,2013-09-03 19:30:00,
2013-09-03 13:34:00,84.8,47.1,30.04,North,4,1.0,5.0,27,0.00,,---,0.00,VWS V13.01,2013-09-03 19:34:00,
2013-09-03 13:39:00,85.0,47.3,30.04,North,359,1.0,8.0,27,0.00,,---,0.00,VWS V13.01,2013-09-03 19:39:00,
2013-09-03 13:44:00,85.4,47.7,30.05,North,0,1.0,8.0,27,0.00,,---,0.00,VWS V13.01,2013-09-03 19:44:00,
2013-09-03 13:49:00,85.0,47.3,30.04,North,1,3.0,8.0,27,0.00,,---,0.00,VWS V13.01,2013-09-03 19:49:00,
2013-09-03 13:54:00,84.8,47.1,30.04,North,0,0.0,8.0,27,0.00,,---,0.00,VWS V13.01,2013-09-03 19:54:00,
2013-09-03 13:59:00,84.9,47.2,30.04,ENE,61,0.0,8.0,27,0.00,,---,0.00,VWS V13.01,2013-09-03 19:59:00,
2013-09-03 14:00:00,84.9,47.2,30.04,ENE,61,0.0,8.0,27,0.00,,---,0.00,VWS V13.01,2013-09-03 20:00:00,
2013-09-03 14:05:00,84.8,49.0,30.03,ENE,77,4.0,9.0,29,0.00,,---,0.00,VWS V13.01,2013-09-03 20:05:00,
2013-09-03 14:10:00,84.4,48.7,30.03,ENE,77,0.0,9.0,29,0.00,,---,0.00,VWS V13.01,2013-09-03 20:10:00,
2013-09-03 14:15:00,85.1,47.4,30.04,North,1,5.0,12.0,27,0.00,,---,0.00,VWS V13.01,2013-09-03 20:15:00,
2013-09-03 14:20:00,85.3,47.6,30.04,North,0,2.0,12.0,27,0.00,,---,0.00,VWS V13.01,2013-09-03 20:20:00,
2013-09-03 14:25:00,85.5,47.7,30.04,North,0,0.0,12.0,27,0.00,,---,0.00,VWS V13.01,2013-09-03 20:25:00,
2013-09-03 14:30:00,85.6,47.8,30.04,North,355,3.0,3.0,27,0.00,,---,0.00,VWS V13.01,2013-09-03 20:30:00,
2013-09-03 14:35:00,86.5,48.6,30.04,NNW,337,3.0,9.0,27,0.00,,---,0.00,VWS V13.01,2013-09-03 20:35:00,
2013-09-03 14:40:00,87.1,49.1,30.03,North,4,0.0,9.0,27,0.00,,---,0.00,VWS V13.01,2013-09-03 20:40:00,
2013-09-03 14:45:00,86.9,48.9,30.04,North,355,1.0,9.0,27,0.00,,---,0.00,VWS V13.01,2013-09-03 20:45:00,
2013-09-03 14:50:00,87.0,49.0,30.03,North,0,1.0,9.0,27,0.00,,---,0.00,VWS V13.01,2013-09-03 20:50:00,
2013-09-03 14:55:00,85.8,48.0,30.04,North,0,1.0,9.0,27,0.00,,---,0.00,VWS V13.01,2013-09-03 20:55:00,
2013-09-03 15:00:00,84.6,47.0,30.03,NE,39,0.0,0.0,27,0.00,,---,0.00,VWS V13.01,2013-09-03 21:00:00,
2013-09-03 15:05:00,84.3,48.6,30.04,North,0,2.0,2.0,29,0.00,,---,0.00,VWS V13.01,2013-09-03 21:05:00,
2013-09-03 15:10:00,84.5,46.9,30.03,NNW,342,0.0,5.0,27,0.00,,---,0.00,VWS V13.01,2013-09-03 21:10:00,
2013-09-03 15:15:00,84.7,47.1,30.02,NNW,341,2.0,5.0,27,0.00,,---,0.00,VWS V13.01,2013-09-03 21:15:00,
2013-09-03 15:21:00,84.8,47.1,30.03,NW,324,0.0,6.0,27,0.00,,---,0.00,VWS V13.01,2013-09-03 21:21:00,
2013-09-03 15:26:00,84.9,47.2,30.02,NNW,343,1.0,6.0,27,0.00,,---,0.00,VWS V13.01,2013-09-03 21:26:00,
2013-09-03 15:30:00,85.0,47.3,30.03,NNW,343,0.0,6.0,27,0.00,,---,0.00,VWS V13.01,2013-09-03 21:30:00,
2013-09-03 15:31:00,85.0,47.3,30.02,NNW,344,3.0,3.0,27,0.00,,---,0.00,VWS V13.01,2013-09-03 21:31:00,
2013-09-03 15:36:00,84.8,47.1,30.02,North,0,3.0,5.0,27,0.00,,---,0.00,VWS V13.01,2013-09-03 21:36:00,
2013-09-03 15:41:00,83.9,49.2,30.02,North,0,5.0,5.0,30,0.00,,---,0.00,VWS V13.01,2013-09-03 21:41:00,
2013-09-03 15:46:00,83.1,47.6,30.02,North,0,6.0,6.0,29,0.00,,---,0.00,VWS V13.01,2013-09-03 21:46:00,
2013-09-03 15:51:00,82.9,49.2,30.02,North,0,2.0,7.0,31,0.00,,---,0.00,VWS V13.01,2013-09-03 21:51:00,
2013-09-03 15:56:00,83.0,50.1,30.03,North,357,0.0,7.0,32,0.00,,---,0.00,VWS V13.01,2013-09-03 21:56:00,
2013-09-03 16:00:00,82.8,50.0,30.03,North,357,3.0,7.0,32,0.00,,---,0.00,VWS V13.01,2013-09-03 22:00:00,
2013-09-03 16:01:00,82.8,49.1,30.03,North,358,4.0,4.0,31,0.00,,---,0.00,VWS V13.01,2013-09-03 22:01:00,
2013-09-03 16:06:00,82.9,48.3,30.03,North,0,4.0,7.0,30,0.00,,---,0.00,VWS V13.01,2013-09-03 22:06:00,
2013-09-03 16:11:00,83.1,47.6,30.04,North,357,4.0,8.0,29,0.00,,---,0.00,VWS V13.01,2013-09-03 22:11:00,
2013-09-03 16:30:00,83.2,47.7,30.03,North,0,3.0,8.0,29,0.00,,---,0.00,VWS V13.01,2013-09-03 22:30:00,
2013-09-03 17:00:00,83.0,48.4,30.03,North,0,1.0,7.0,30,0.00,,---,0.00,VWS V13.01,2013-09-03 23:00:00,
2013-09-03 17:30:00,82.6,50.6,30.03,North,0,1.0,9.0,33,0.00,,---,0.00,VWS V13.01,2013-09-03 23:30:00,
2013-09-03 17:59:00,82.6,50.6,30.03,North,0,1.0,9.0,33,0.00,,---,0.00,VWS V13.01,2013-09-03 23:59:00,
2013-09-03 18:04:00,80.6,48.9,30.03,ENE,63,1.0,4.0,33,0.00,,---,0.00,VWS V13.01,2013-09-04 00:04:00,
2013-09-03 18:09:00,80.9,49.1,30.02,ENE,63,1.0,4.0,33,0.00,,---,0.00,VWS V13.01,2013-09-04 00:09:00,
2013-09-03 18:14:00,81.5,48.8,30.03,East,87,2.0,5.0,32,0.00,,---,0.00,VWS V13.01,2013-09-04 00:14:00,
2013-09-03 18:19:00,81.8,47.4,30.03,East,90,1.0,5.0,30,0.00,,---,0.00,VWS V13.01,2013-09-04 00:19:00,
2013-09-03 18:24:00,82.0,47.5,30.03,East,88,2.0,5.0,30,0.00,,---,0.00,VWS V13.01,2013-09-04 00:24:00,
2013-09-03 18:29:00,81.8,47.4,30.03,East,96,2.0,6.0,30,0.00,,---,0.00,VWS V13.01,2013-09-04 00:29:00,
2013-09-03 18:34:00,81.7,47.3,30.02,East,98,2.0,5.0,30,0.00,,---,0.00,VWS V13.01,2013-09-04 00:34:00,
2013-09-03 18:39:00,81.4,48.7,30.02,East,95,2.0,5.0,32,0.00,,---,0.00,VWS V13.01,2013-09-04 00:39:00,
2013-09-03 18:44:00,80.8,49.0,30.03,East,83,2.0,5.0,33,0.00,,---,0.00,VWS V13.01,2013-09-04 00:44:00,
2013-09-03 18:49:00,80.1,48.4,30.03,East,83,0.0,5.0,33,0.00,,---,0.00,VWS V13.01,2013-09-04 00:49:00,
2013-09-03 18:54:00,79.9,48.3,30.02,East,83,0.0,5.0,33,0.00,,---,0.00,VWS V13.01,2013-09-04 00:54:00,
2013-09-03 18:59:00,79.7,48.9,30.03,East,83,0.0,5.0,34,0.00,,---,0.00,VWS V13.01,2013-09-04 00:59:00,
2013-09-03 19:05:00,79.4,47.8,30.04,East,83,0.0,1.0,33,0.00,,---,0.00,VWS V13.01,2013-09-04 01:05:00,
2013-09-03 19:10:00,79.1,47.6,30.03,East,83,0.0,1.0,33,0.00,,---,0.00,VWS V13.01,2013-09-04 01:10:00,
2013-09-03 19:15:00,78.8,48.1,30.02,East,83,0.0,1.0,34,0.00,,---,0.00,VWS V13.01,2013-09-04 01:15:00,
2013-09-03 19:20:00,78.6,47.1,30.03,East,83,0.0,1.0,33,0.00,,---,0.00,VWS V13.01,2013-09-04 01:20:00,
2013-09-03 19:25:00,78.3,48.4,30.03,East,83,0.0,1.0,35,0.00,,---,0.00,VWS V13.01,2013-09-04 01:25:00,
2013-09-03 19:30:00,78.0,49.7,30.04,East,79,0.0,0.0,37,0.00,,---,0.00,VWS V13.01,2013-09-04 01:30:00,
2013-09-03 19:35:00,77.5,49.2,30.03,ENE,76,0.0,1.0,37,0.00,,---,0.00,VWS V13.01,2013-09-04 01:35:00,
2013-09-03 19:40:00,77.0,48.0,30.03,NE,38,0.0,3.0,36,0.00,,---,0.00,VWS V13.01,2013-09-04 01:40:00,
2013-09-03 19:45:00,76.7,49.9,30.03,NE,38,0.0,3.0,39,0.00,,---,0.00,VWS V13.01,2013-09-04 01:45:00,
2013-09-03 19:50:00,76.5,49.7,30.04,NE,38,0.0,3.0,39,0.00,,---,0.00,VWS V13.01,2013-09-04 01:50:00,
2013-09-03 19:55:00,76.2,49.5,30.03,NE,38,0.0,3.0,39,0.00,,---,0.00,VWS V13.01,2013-09-04 01:55:00,
2013-09-03 20:00:00,76.0,49.3,30.03,NE,38,0.0,0.0,39,0.00,,---,0.00,VWS V13.01,2013-09-04 02:00:00,
2013-09-03 20:05:00,75.8,47.7,30.03,NE,38,0.0,1.0,37,0.00,,---,0.00,VWS V13.01,2013-09-04 02:05:00,
2013-09-03 20:10:00,75.7,49.0,30.04,NE,38,0.0,1.0,39,0.00,,---,0.00,VWS V13.01,2013-09-04 02:10:00,
2013-09-03 20:15:00,75.5,47.4,30.04,NE,38,0.0,1.0,37,0.00,,---,0.00,VWS V13.01,2013-09-04 02:15:00,
2013-09-03 20:20:00,75.3,48.0,30.05,NE,38,0.0,1.0,38,0.00,,---,0.00,VWS V13.01,2013-09-04 02:20:00,
2013-09-03 20:25:00,74.8,47.5,30.04,NE,38,0.0,1.0,38,0.00,,---,0.00,VWS V13.01,2013-09-04 02:25:00,
2013-09-03 20:30:00,74.4,47.2,30.05,NE,38,1.0,1.0,38,0.00,,---,0.00,VWS V13.01,2013-09-04 02:30:00,
2013-09-03 20:35:00,73.8,46.6,30.05,NE,38,0.0,1.0,38,0.00,,---,0.00,VWS V13.01,2013-09-04 02:35:00,
2013-09-03 20:40:00,73.3,45.5,30.05,NE,38,1.0,1.0,37,0.00,,---,0.00,VWS V13.01,2013-09-04 02:40:00,
2013-09-03 20:45:00,73.0,46.6,30.05,NE,38,0.0,1.0,39,0.00,,---,0.00,VWS V13.01,2013-09-04 02:45:00,
2013-09-03 20:50:00,72.5,45.5,30.05,NE,38,0.0,1.0,38,0.00,,---,0.00,VWS V13.01,2013-09-04 02:50:00,
2013-09-03 20:55:00,72.2,45.9,30.04,NE,38,0.0,1.0,39,0.00,,---,0.00,VWS V13.01,2013-09-04 02:55:00,
2013-09-03 21:00:00,71.9,44.9,30.05,NE,39,2.0,2.0,38,0.00,,---,0.00,VWS V13.01,2013-09-04 03:00:00,
2013-09-03 21:05:00,71.4,45.2,30.06,NE,39,0.0,2.0,39,0.00,,---,0.00,VWS V13.01,2013-09-04 03:05:00,
2013-09-03 21:11:00,70.6,43.8,30.05,NE,40,1.0,2.0,38,0.00,,---,0.00,VWS V13.01,2013-09-04 03:11:00,
2013-09-03 21:16:00,70.1,44.7,30.05,NE,43,0.0,2.0,40,0.00,,---,0.00,VWS V13.01,2013-09-04 03:16:00,
2013-09-03 21:21:00,69.4,44.1,30.05,NE,43,1.0,2.0,40,0.00,,---,0.00,VWS V13.01,2013-09-04 03:21:00,
2013-09-03 21:26:00,68.7,44.7,30.05,NE,43,0.0,2.0,42,0.00,,---,0.00,VWS V13.01,2013-09-04 03:26:00,
2013-09-03 21:31:00,68.3,45.0,30.05,SSW,210,3.0,3.0,43,0.00,,---,0.00,VWS V13.01,2013-09-04 03:31:00,
2013-09-03 21:36:00,68.3,45.0,30.05,SW,214,0.0,3.0,43,0.00,,---,0.00,VWS V13.01,2013-09-04 03:36:00,
2013-09-03 21:41:00,68.4,44.4,30.06,SW,215,0.0,3.0,42,0.00,,---,0.00,VWS V13.01,2013-09-04 03:41:00,
2013-09-03 21:46:00,68.4,44.4,30.06,WSW,242,0.0,3.0,42,0.00,,---,0.00,VWS V13.01,2013-09-04 03:46:00,
2013-09-03 21:51:00,68.4,45.0,30.06,WSW,242,0.0,3.0,43,0.00,,---,0.00,VWS V13.01,2013-09-04 03:51:00,
2013-09-03 21:56:00,68.4,45.0,30.06,WSW,242,0.0,3.0,43,0.00,,---,0.00,VWS V13.01,2013-09-04 03:56:00,
2013-09-03 22:01:00,68.3,45.0,30.06,WSW,242,0.0,0.0,43,0.00,,---,0.00,VWS V13.01,2013-09-04 04:01:00,
2013-09-03 22:02:00,68.4,46.2,30.06,WSW,242,0.0,0.0,45,0.00,,---,0.00,VWS V13.01,2013-09-04 04:02:00,
2013-09-03 22:03:00,68.4,45.7,30.06,WSW,242,0.0,0.0,44,0.00,,---,0.00,VWS V13.01,2013-09-04 04:03:00,
2013-09-03 22:04:00,68.4,45.7,30.06,WSW,242,0.0,0.0,44,0.00,,---,0.00,VWS V13.01,2013-09-04 04:04:00,
2013-09-03 22:09:00,68.4,45.7,30.06,WSW,241,0.0,0.0,44,0.00,,---,0.00,VWS V13.01,2013-09-04 04:09:00,
2013-09-03 22:14:00,68.5,46.3,30.06,WSW,241,0.0,1.0,45,0.00,,---,0.00,VWS V13.01,2013-09-04 04:14:00,
2013-09-03 22:19:00,68.6,45.2,30.06,SW,235,0.0,3.0,43,0.00,,---,0.00,VWS V13.01,2013-09-04 04:19:00,
2013-09-03 22:24:00,68.7,45.3,30.07,SW,233,0.0,3.0,43,0.00,,---,0.00,VWS V13.01,2013-09-04 04:24:00,
2013-09-03 22:30:00,68.7,45.9,30.06,SW,233,0.0,0.0,44,0.00,,---,0.00,VWS V13.01,2013-09-04 04:30:00,
2013-09-03 22:35:00,68.6,46.4,30.07,SW,233,0.0,0.0,45,0.00,,---,0.00,VWS V13.01,2013-09-04 04:35:00,
2013-09-03 22:40:00,67.9,45.8,30.07,SW,233,0.0,2.0,45,0.00,,---,0.00,VWS V13.01,2013-09-04 04:40:00,
2013-09-03 22:45:00,67.5,45.4,30.07,SW,233,0.0,2.0,45,0.00,,---,0.00,VWS V13.01,2013-09-04 04:45:00,
2013-09-03 22:50:00,67.3,46.4,30.08,SW,233,0.0,2.0,47,0.00,,---,0.00,VWS V13.01,2013-09-04 04:50:00,
2013-09-03 22:55:00,67.0,46.1,30.07,SW,232,1.0,2.0,47,0.00,,---,0.00,VWS V13.01,2013-09-04 04:55:00,
2013-09-03 23:00:00,66.8,45.9,30.07,SW,228,0.0,1.0,47,0.00,,---,0.00,VWS V13.01,2013-09-04 05:00:00,
2013-09-03 23:05:00,66.8,46.5,30.07,SW,228,0.0,1.0,48,0.00,,---,0.00,VWS V13.01,2013-09-04 05:05:00,
2013-09-03 23:10:00,66.9,46.0,30.08,SW,227,0.0,2.0,47,0.00,,---,0.00,VWS V13.01,2013-09-04 05:10:00,
2013-09-03 23:30:00,67.8,47.4,30.08,SW,225,4.0,17.0,48,0.00,,---,0.00,VWS V13.01,2013-09-04 05:30:00,